Weather in Kazar'

Russia / Oryol Oblast     52°54′01″N   36°52′27″E
temp.,
°C
wind,
m/s
gust,
m/s
humid.,
%
clouds,
%
prec.,
mm/h
press.,
hPa
HPBL,
m
15 may, sat
sat1500:00+15s339399 0.6 100942
03:00+14sse33955 0.6 100838
06:00+14s36965 0.0 1008137
09:00+17ssw61081100 0.0 1010488
12:00+20ssw67634 0.0 10101342
15:00+20ssw79595 0.2 10102030
18:00+18ssw7117918 2.1 1010774
21:00+14ssw412915 2.4 1011370
16 may, sun
sun1600:00+12ssw36940 0.0 1012121
03:00+11ssw36940 0.0 1013109
06:00+12s35916 0.0 1014112
09:00+17s467654 0.0 1014395
12:00+20ssw57601 0.9 10141507
15:00+21ssw575873 0.9 10141813
18:00+21sw2369100 0.0 1013646
21:00+16nne2279100 0.0 101411
17 may, mon
mon1700:00+14ene33875 0.0 101444
03:00+13e4108970 0.2 1013177
06:00+14ene5129298 0.8 1012276
09:00+19ese6117558 0.8 1011436
12:00+23ese711601 0.0 1010815
15:00+25ese7135933 0.0 10091600
18:00+23se7146567 0.0 1008641
21:00+19ese6157750 0.0 1008407
18 may, tue
tue1800:00+17se514815 0.0 1007341
03:00+15se41188100 0.0 1007232
06:00+15se4109059 0.0 1006248
09:00+20se6107788 0.0 1006652
12:00+22sse71066100 0.0 10061241
15:00+22s71068100 0.1 10051594
18:00+18s6127864 1.6 1005790
21:00+15sse613916 2.1 1005440
19 may, wed
wed1900:00+14sse51494100 0.0 1005541
03:00+13sse5119696 0.0 1005486
06:00+14sw6993100 0.8 1006544
09:00+14ssw687954 0.8 1008845
12:00+16ssw786474 0.1 10081624
15:00+16ssw69662 0.5 10091536
18:00+15ssw711740 0.8 10091113
21:00+12s5138739 0.9 1010450